JBU940 KCLE-KBOS

Flight info

Callsign JBU940
Flight time 1h 15m
Altitude 35000
Route PFLYD1 JASEE JHW Q82 PONCT JFUND2
Aircraft A321/M-SDE3FGHIRWY/LB1

Departure

Time 2026-05-05 01:20
Airport Cleveland Hopkins International Airport (KCLE)

Arrival

Time 2026-05-05 02:36
Airport Boston Logan International Airport (KBOS)
Time Latitude Longitude Altitude Speed Heading
2026-05-05 01:07 41.40878 -81.83942 796 ft 0 kts 323°
2026-05-05 01:12 41.40874 -81.83939 796 ft 2 kts 322°
2026-05-05 01:12 41.40860 -81.83922 796 ft 3 kts 313°
2026-05-05 01:13 41.40848 -81.83902 797 ft 3 kts 288°
2026-05-05 01:13 41.40846 -81.83881 797 ft 2 kts 246°
2026-05-05 01:13 41.40847 -81.83877 797 ft 0 kts 243°
2026-05-05 01:15 41.40823 -81.83916 797 ft 12 kts 220°
2026-05-05 01:16 41.40731 -81.83997 797 ft 19 kts 211°
2026-05-05 01:16 41.40616 -81.84119 797 ft 22 kts 251°
2026-05-05 01:16 41.40620 -81.84318 796 ft 19 kts 289°
2026-05-05 01:16 41.40714 -81.84430 798 ft 20 kts 354°
2026-05-05 01:17 41.40875 -81.84431 798 ft 26 kts 14°
2026-05-05 01:17 41.40989 -81.84379 799 ft 17 kts 358°
2026-05-05 01:17 41.41148 -81.84382 799 ft 26 kts 359°
2026-05-05 01:17 41.41293 -81.84245 798 ft 28 kts 49°
2026-05-05 01:18 41.41403 -81.84105 799 ft 15 kts
2026-05-05 01:18 41.41447 -81.84124 799 ft 5 kts 312°
2026-05-05 01:18 41.41453 -81.84132 798 ft 5 kts 314°
2026-05-05 01:18 41.41510 -81.84208 798 ft 14 kts 302°
2026-05-05 01:19 41.41502 -81.84259 797 ft 0 kts 233°
2026-05-05 01:19 41.41501 -81.84260 797 ft 0 kts 233°
2026-05-05 01:19 41.41459 -81.84331 796 ft 33 kts 230°
2026-05-05 01:19 41.41158 -81.84802 796 ft 99 kts 230°
2026-05-05 01:20 41.40585 -81.85700 784 ft 153 kts 229°
2026-05-05 01:20 41.39854 -81.86862 1206 ft 161 kts 227°
2026-05-05 01:20 41.39178 -81.87999 1998 ft 154 kts 236°
2026-05-05 01:20 41.38875 -81.89341 2798 ft 152 kts 258°
2026-05-05 01:21 41.38908 -81.90748 3468 ft 155 kts 271°
2026-05-05 01:21 41.39094 -81.92242 3724 ft 173 kts 272°
2026-05-05 01:21 41.39301 -81.93919 3871 ft 195 kts 273°
2026-05-05 01:21 41.39537 -81.95804 4060 ft 215 kts 273°
2026-05-05 01:22 41.39799 -81.97855 4374 ft 233 kts 275°
2026-05-05 01:22 41.40079 -82.00000 5043 ft 236 kts 275°
2026-05-05 01:22 41.40362 -82.02157 5744 ft 239 kts 275°
2026-05-05 01:22 41.40649 -82.04342 5972 ft 239 kts 276°
2026-05-05 01:23 41.40934 -82.06518 6020 ft 239 kts 276°
2026-05-05 01:23 41.41217 -82.08690 6023 ft 238 kts 276°
2026-05-05 01:23 41.41746 -82.10814 6313 ft 252 kts 300°
2026-05-05 01:23 41.43181 -82.12254 7001 ft 274 kts 333°
2026-05-05 01:24 41.45148 -82.12428 7652 ft 299 kts
2026-05-05 01:24 41.47089 -82.11247 8299 ft 316 kts 29°
2026-05-05 01:24 41.48804 -82.09359 8964 ft 323 kts 39°
2026-05-05 01:24 41.50380 -82.07253 9637 ft 327 kts 42°
2026-05-05 01:25 41.51971 -82.05082 10243 ft 330 kts 40°
2026-05-05 01:25 41.53676 -82.02882 10400 ft 350 kts 39°
2026-05-05 01:25 41.55540 -82.00647 10528 ft 370 kts 37°
2026-05-05 01:25 41.57547 -81.98380 10738 ft 385 kts 35°
2026-05-05 01:26 41.59546 -81.95947 11224 ft 393 kts 44°
2026-05-05 01:26 41.61177 -81.92994 11803 ft 400 kts 58°
2026-05-05 01:26 41.62287 -81.89560 12394 ft 405 kts 73°
2026-05-05 01:26 41.62782 -81.85847 12983 ft 408 kts 86°
2026-05-05 01:27 41.62979 -81.82054 13599 ft 410 kts 86°
2026-05-05 01:27 41.63184 -81.78244 14136 ft 413 kts 86°
2026-05-05 01:27 41.63394 -81.74413 14676 ft 415 kts 86°
2026-05-05 01:27 41.63613 -81.70543 15215 ft 418 kts 86°
2026-05-05 01:28 41.63836 -81.66654 15759 ft 421 kts 86°
2026-05-05 01:28 41.64061 -81.62750 16309 ft 423 kts 86°
2026-05-05 01:28 41.64285 -81.58814 16868 ft 425 kts 86°
2026-05-05 01:28 41.64512 -81.54867 17433 ft 428 kts 84°
2026-05-05 01:29 41.65042 -81.50937 17947 ft 431 kts 74°
2026-05-05 01:29 41.65915 -81.47102 18384 ft 433 kts 72°
2026-05-05 01:29 41.66809 -81.43247 18864 ft 435 kts 72°
2026-05-05 01:29 41.67707 -81.39356 19278 ft 439 kts 72°
2026-05-05 01:30 41.68610 -81.35438 19724 ft 442 kts 72°
2026-05-05 01:30 41.69515 -81.31490 20169 ft 445 kts 72°
2026-05-05 01:30 41.70411 -81.27564 20599 ft 448 kts 72°
2026-05-05 01:30 41.71333 -81.23525 21072 ft 449 kts 72°
2026-05-05 01:31 41.72238 -81.19575 21514 ft 451 kts 72°
2026-05-05 01:31 41.73168 -81.15506 21943 ft 453 kts 72°
2026-05-05 01:31 41.74079 -81.11508 22339 ft 455 kts 72°
2026-05-05 01:31 41.75000 -81.07444 22738 ft 458 kts 72°
2026-05-05 01:32 41.75923 -81.03344 23144 ft 460 kts 72°
2026-05-05 01:32 41.76849 -80.99231 23501 ft 463 kts 72°
2026-05-05 01:32 41.77782 -80.95102 23814 ft 465 kts 72°
2026-05-05 01:32 41.78731 -80.90946 24148 ft 467 kts 72°
2026-05-05 01:33 41.79687 -80.86786 24496 ft 468 kts 71°
2026-05-05 01:33 41.80645 -80.82605 24831 ft 470 kts 72°
2026-05-05 01:33 41.81604 -80.78405 25147 ft 472 kts 72°
2026-05-05 01:33 41.82566 -80.74181 25482 ft 474 kts 72°
2026-05-05 01:34 41.83529 -80.69937 25729 ft 478 kts 72°
2026-05-05 01:34 41.84500 -80.65648 26016 ft 481 kts 72°
2026-05-05 01:34 41.85471 -80.61345 26306 ft 483 kts 72°
2026-05-05 01:34 41.86446 -80.57027 26602 ft 485 kts 71°
2026-05-05 01:35 41.87435 -80.52698 26887 ft 487 kts 71°
2026-05-05 01:35 41.88438 -80.48348 27217 ft 488 kts 71°
2026-05-05 01:35 41.89444 -80.44001 27512 ft 490 kts 71°
2026-05-05 01:35 41.90458 -80.39627 27799 ft 491 kts 71°
2026-05-05 01:36 41.91473 -80.35237 28089 ft 493 kts 71°
2026-05-05 01:36 41.92488 -80.30823 28388 ft 495 kts 71°
2026-05-05 01:36 41.93500 -80.26394 28680 ft 497 kts 71°
2026-05-05 01:36 41.94512 -80.21945 28992 ft 498 kts 71°
2026-05-05 01:37 41.95519 -80.17505 29404 ft 497 kts 72°
2026-05-05 01:37 41.96524 -80.13064 29832 ft 495 kts 72°
2026-05-05 01:37 41.97525 -80.08630 30216 ft 493 kts 71°
2026-05-05 01:37 41.98518 -80.04222 30532 ft 494 kts 71°
2026-05-05 01:38 41.99512 -79.99807 30811 ft 494 kts 71°
2026-05-05 01:38 42.00506 -79.95390 31129 ft 494 kts 71°
2026-05-05 01:38 42.01499 -79.90979 31456 ft 493 kts 71°
2026-05-05 01:38 42.02491 -79.86561 31789 ft 493 kts 71°
2026-05-05 01:39 42.03479 -79.82148 32118 ft 492 kts 71°
2026-05-05 01:39 42.04460 -79.77749 32439 ft 491 kts 71°
2026-05-05 01:39 42.05439 -79.73351 32759 ft 490 kts 71°
2026-05-05 01:39 42.06414 -79.68962 33090 ft 490 kts 71°
2026-05-05 01:40 42.07386 -79.64572 33387 ft 489 kts 71°
2026-05-05 01:40 42.08353 -79.60190 33701 ft 488 kts 71°
2026-05-05 01:40 42.09316 -79.55812 33980 ft 488 kts 71°
2026-05-05 01:40 42.10279 -79.51428 34228 ft 488 kts 71°
2026-05-05 01:41 42.11242 -79.47051 34463 ft 488 kts 71°
2026-05-05 01:41 42.12208 -79.42672 34688 ft 488 kts 71°
2026-05-05 01:41 42.13173 -79.38290 34794 ft 490 kts 71°
2026-05-05 01:41 42.14144 -79.33867 34806 ft 495 kts 71°
2026-05-05 01:42 42.16106 -79.24882 34804 ft 503 kts 71°
2026-05-05 01:42 42.18075 -79.15815 34803 ft 504 kts 71°
2026-05-05 01:43 42.19583 -79.06584 34762 ft 506 kts 79°
2026-05-05 01:43 42.20761 -78.97297 34773 ft 505 kts 78°
2026-05-05 01:44 42.21955 -78.87959 34781 ft 506 kts 78°
2026-05-05 01:44 42.23150 -78.78598 34792 ft 506 kts 78°
2026-05-05 01:45 42.24333 -78.69232 34808 ft 507 kts 78°
2026-05-05 01:45 42.25504 -78.59863 34822 ft 506 kts 78°
2026-05-05 01:46 42.26662 -78.50505 34827 ft 505 kts 78°
2026-05-05 01:46 42.27811 -78.41149 34827 ft 505 kts 78°
2026-05-05 01:47 42.28760 -78.33371 34825 ft 505 kts 78°
2026-05-05 01:47 42.29902 -78.24010 34827 ft 505 kts 78°
2026-05-05 01:48 42.31030 -78.14659 34824 ft 505 kts 79°
2026-05-05 01:48 42.32144 -78.05291 34821 ft 505 kts 79°
2026-05-05 01:49 42.33259 -77.95930 34820 ft 505 kts 79°
2026-05-05 01:49 42.34372 -77.86559 34824 ft 504 kts 79°
2026-05-05 01:50 42.35471 -77.77202 34800 ft 504 kts 79°
2026-05-05 01:50 42.36566 -77.67845 34815 ft 504 kts 79°
2026-05-05 01:51 42.37657 -77.58482 34802 ft 504 kts 79°
2026-05-05 01:51 42.38733 -77.49095 34798 ft 505 kts 79°
2026-05-05 01:52 42.39803 -77.39720 34796 ft 505 kts 79°
2026-05-05 01:52 42.40864 -77.30327 34791 ft 505 kts 79°
2026-05-05 01:53 42.41915 -77.20931 34783 ft 505 kts 79°
2026-05-05 01:53 42.42957 -77.11538 34790 ft 505 kts 79°
2026-05-05 01:54 42.43992 -77.02152 34785 ft 504 kts 79°
2026-05-05 01:54 42.45019 -76.92757 34787 ft 504 kts 79°
2026-05-05 01:55 42.46041 -76.83355 34793 ft 504 kts 79°
2026-05-05 01:55 42.47051 -76.73978 34817 ft 503 kts 79°
2026-05-05 01:56 42.48062 -76.64603 34819 ft 503 kts 79°
2026-05-05 01:56 42.49059 -76.55238 34821 ft 502 kts 79°
2026-05-05 01:57 42.50049 -76.45869 34820 ft 502 kts 79°
2026-05-05 01:57 42.51029 -76.36525 34825 ft 500 kts 79°
2026-05-05 01:58 42.51997 -76.27189 34822 ft 500 kts 79°
2026-05-05 01:58 42.52956 -76.17866 34817 ft 499 kts 79°
2026-05-05 01:59 42.53914 -76.08542 34817 ft 499 kts 79°
2026-05-05 01:59 42.54859 -75.99223 34820 ft 499 kts 80°
2026-05-05 02:00 42.55783 -75.89907 34846 ft 499 kts 80°
2026-05-05 02:00 42.56697 -75.80572 34835 ft 499 kts 80°
2026-05-05 02:01 42.57616 -75.71232 34839 ft 500 kts 79°
2026-05-05 02:01 42.58541 -75.61883 34837 ft 500 kts 79°
2026-05-05 02:02 42.59457 -75.52539 34836 ft 500 kts 80°
2026-05-05 02:02 42.60351 -75.43174 34834 ft 500 kts 80°
2026-05-05 02:03 42.61242 -75.33811 34834 ft 500 kts 79°
2026-05-05 02:03 42.62135 -75.24436 34831 ft 501 kts 79°
2026-05-05 02:04 42.63011 -75.15117 34829 ft 501 kts 80°
2026-05-05 02:04 42.63887 -75.05675 34838 ft 500 kts 80°
2026-05-05 02:05 42.64747 -74.96301 34843 ft 501 kts 80°
2026-05-05 02:05 42.65601 -74.86902 34837 ft 501 kts 80°
2026-05-05 02:06 42.66443 -74.77561 34834 ft 501 kts 80°
2026-05-05 02:06 42.67289 -74.68161 34833 ft 502 kts 80°
2026-05-05 02:07 42.68123 -74.58744 34834 ft 501 kts 80°
2026-05-05 02:07 42.68955 -74.49336 34838 ft 502 kts 80°
2026-05-05 02:08 42.69779 -74.39918 34827 ft 502 kts 80°
2026-05-05 02:08 42.70587 -74.30503 34841 ft 502 kts 80°
2026-05-05 02:09 42.71385 -74.21076 34840 ft 501 kts 80°
2026-05-05 02:09 42.72182 -74.11669 34843 ft 501 kts 81°
2026-05-05 02:10 42.72971 -74.02251 34854 ft 501 kts 81°
2026-05-05 02:10 42.73760 -73.92834 34866 ft 501 kts 81°
2026-05-05 02:11 42.74525 -73.83408 34867 ft 501 kts 81°
2026-05-05 02:11 42.74659 -73.73891 34862 ft 504 kts 88°
2026-05-05 02:12 42.74550 -73.59575 34862 ft 504 kts 88°
2026-05-05 02:13 42.74474 -73.50074 34712 ft 501 kts 88°
2026-05-05 02:13 42.74432 -73.45405 34584 ft 500 kts 88°
2026-05-05 02:13 42.74390 -73.40680 34443 ft 500 kts 88°
2026-05-05 02:13 42.74344 -73.35954 34153 ft 501 kts 88°
2026-05-05 02:14 42.74298 -73.31174 33155 ft 507 kts 88°
2026-05-05 02:14 42.74249 -73.26403 32536 ft 502 kts 88°
2026-05-05 02:14 42.74197 -73.21664 31814 ft 500 kts 88°
2026-05-05 02:14 42.74143 -73.16938 31015 ft 500 kts 89°
2026-05-05 02:15 42.74065 -73.12210 30297 ft 501 kts 92°
2026-05-05 02:15 42.73633 -73.07481 29765 ft 505 kts 97°
2026-05-05 02:15 42.73088 -73.02750 29155 ft 507 kts 98°
2026-05-05 02:15 42.72540 -72.98009 28591 ft 509 kts 98°
2026-05-05 02:16 42.71988 -72.93253 28016 ft 510 kts 98°
2026-05-05 02:16 42.71429 -72.88479 27431 ft 512 kts 98°
2026-05-05 02:16 42.70868 -72.83701 26847 ft 513 kts 98°
2026-05-05 02:16 42.70306 -72.78895 26274 ft 514 kts 98°
2026-05-05 02:17 42.69747 -72.74105 25688 ft 511 kts 98°
2026-05-05 02:17 42.69188 -72.69347 25127 ft 508 kts 98°
2026-05-05 02:17 42.68629 -72.64624 24580 ft 505 kts 98°
2026-05-05 02:17 42.68072 -72.59930 24054 ft 501 kts 99°
2026-05-05 02:18 42.67508 -72.55239 23534 ft 508 kts 99°
2026-05-05 02:18 42.66925 -72.50491 22946 ft 510 kts 99°
2026-05-05 02:18 42.66336 -72.45750 22448 ft 508 kts 99°
2026-05-05 02:18 42.65749 -72.41016 21923 ft 505 kts 99°
2026-05-05 02:19 42.65168 -72.36333 21404 ft 502 kts 99°
2026-05-05 02:19 42.64594 -72.31679 20888 ft 498 kts 99°
2026-05-05 02:19 42.64036 -72.27048 20281 ft 494 kts 99°
2026-05-05 02:19 42.63505 -72.22452 19701 ft 490 kts 99°
2026-05-05 02:20 42.62985 -72.17901 19102 ft 486 kts 99°
2026-05-05 02:20 42.62471 -72.13382 18533 ft 482 kts 99°
2026-05-05 02:20 42.61953 -72.08905 17926 ft 478 kts 99°
2026-05-05 02:20 42.61432 -72.04468 17407 ft 475 kts 99°
2026-05-05 02:21 42.60910 -72.00106 16867 ft 472 kts 99°
2026-05-05 02:21 42.60365 -71.95677 16312 ft 468 kts 100°
2026-05-05 02:21 42.59825 -71.91396 15766 ft 464 kts 100°
2026-05-05 02:21 42.59281 -71.87098 15210 ft 459 kts 100°
2026-05-05 02:22 42.58747 -71.82847 14677 ft 455 kts 99°
2026-05-05 02:22 42.58184 -71.78639 14136 ft 452 kts 101°
2026-05-05 02:22 42.57557 -71.74483 13580 ft 448 kts 102°
2026-05-05 02:22 42.56887 -71.70373 13027 ft 444 kts 103°
2026-05-05 02:23 42.56204 -71.66301 12505 ft 441 kts 103°
2026-05-05 02:23 42.55526 -71.62269 12021 ft 435 kts 103°
2026-05-05 02:23 42.54858 -71.58279 11906 ft 435 kts 103°
2026-05-05 02:23 42.54124 -71.54309 11435 ft 431 kts 105°
2026-05-05 02:24 42.53327 -71.50411 11040 ft 428 kts 106°
2026-05-05 02:24 42.52493 -71.46549 10625 ft 425 kts 107°
2026-05-05 02:24 42.51655 -71.42735 10243 ft 421 kts 107°
2026-05-05 02:24 42.50828 -71.38932 10111 ft 420 kts 107°
2026-05-05 02:25 42.50018 -71.35140 9873 ft 419 kts 106°
2026-05-05 02:25 42.49237 -71.31330 9120 ft 418 kts 105°
2026-05-05 02:25 42.48490 -71.27561 8560 ft 411 kts 105°
2026-05-05 02:25 42.47761 -71.23844 8003 ft 407 kts 105°
2026-05-05 02:26 42.47035 -71.20151 7430 ft 405 kts 105°
2026-05-05 02:26 42.46638 -71.16405 6869 ft 401 kts 88°
2026-05-05 02:26 42.47198 -71.12743 6305 ft 396 kts 66°
2026-05-05 02:26 42.48382 -71.09440 6014 ft 392 kts 60°
2026-05-05 02:27 42.49949 -71.06602 5975 ft 364 kts 38°
2026-05-05 02:27 42.52005 -71.04919 5957 ft 327 kts 18°
2026-05-05 02:27 42.54028 -71.03869 5793 ft 297 kts 16°
2026-05-05 02:27 42.55910 -71.02925 5339 ft 283 kts 15°
2026-05-05 02:28 42.57752 -71.02010 4644 ft 280 kts 15°
2026-05-05 02:28 42.59584 -71.01095 3913 ft 281 kts 16°
2026-05-05 02:28 42.61413 -71.00153 3238 ft 280 kts 20°
2026-05-05 02:28 42.62987 -70.98567 3051 ft 289 kts 50°
2026-05-05 02:29 42.63879 -70.96166 2982 ft 280 kts 80°
2026-05-05 02:29 42.63895 -70.93653 2985 ft 257 kts 108°
2026-05-05 02:29 42.63421 -70.91403 3004 ft 245 kts 115°
2026-05-05 02:29 42.62574 -70.89497 3003 ft 227 kts 151°
2026-05-05 02:30 42.61186 -70.88831 3008 ft 208 kts 191°
2026-05-05 02:30 42.59786 -70.89228 2998 ft 205 kts 202°
2026-05-05 02:30 42.58435 -70.89848 2998 ft 204 kts 204°
2026-05-05 02:30 42.57117 -70.90488 2994 ft 200 kts 205°
2026-05-05 02:31 42.55811 -70.91125 3002 ft 199 kts 205°
2026-05-05 02:31 42.54510 -70.91760 2998 ft 198 kts 205°
2026-05-05 02:31 42.53212 -70.92392 2998 ft 198 kts 205°
2026-05-05 02:31 42.51926 -70.93017 2954 ft 191 kts 206°
2026-05-05 02:32 42.50709 -70.93606 2779 ft 181 kts 206°
2026-05-05 02:32 42.49544 -70.94173 2552 ft 175 kts 206°
2026-05-05 02:32 42.48414 -70.94723 2341 ft 171 kts 205°
2026-05-05 02:32 42.47321 -70.95254 2135 ft 163 kts 206°
2026-05-05 02:33 42.46268 -70.95766 1908 ft 159 kts 206°
2026-05-05 02:33 42.45271 -70.96249 1711 ft 148 kts 206°
2026-05-05 02:33 42.44343 -70.96698 1499 ft 135 kts 206°
2026-05-05 02:33 42.43485 -70.97114 1345 ft 127 kts 205°
2026-05-05 02:34 42.42666 -70.97513 1188 ft 124 kts 205°
2026-05-05 02:34 42.41859 -70.97916 969 ft 124 kts 205°
2026-05-05 02:34 42.41031 -70.98332 780 ft 129 kts 204°
2026-05-05 02:34 42.40164 -70.98738 659 ft 133 kts 200°
2026-05-05 02:35 42.39282 -70.99168 476 ft 135 kts 201°
2026-05-05 02:35 42.38686 -70.99456 373 ft 135 kts 202°
2026-05-05 02:35 42.37792 -70.99884 193 ft 135 kts 202°
2026-05-05 02:35 42.36942 -71.00299 37 ft 121 kts 201°
2026-05-05 02:36 42.36250 -71.00632 29 ft 85 kts 199°
2026-05-05 02:36 42.35853 -71.00824 29 ft 42 kts 200°
2026-05-05 02:36 42.35645 -71.00948 28 ft 24 kts 234°
2026-05-05 02:36 42.35658 -71.01146 27 ft 22 kts 297°
2026-05-05 02:37 42.35743 -71.01319 25 ft 22 kts 294°
2026-05-05 02:37 42.35797 -71.01519 29 ft 21 kts 291°
2026-05-05 02:37 42.35908 -71.01544 27 ft 18 kts 19°
2026-05-05 02:37 42.36043 -71.01477 27 ft 28 kts 20°
2026-05-05 02:38 42.36277 -71.01360 27 ft 27 kts 20°
2026-05-05 02:38 42.36395 -71.01393 28 ft 16 kts 353°
2026-05-05 02:38 42.36495 -71.01359 28 ft 7 kts 355°
2026-05-05 02:38 42.36533 -71.01395 28 ft 4 kts 323°
2026-05-05 02:39 42.36546 -71.01408 26 ft 1 kts 324°